FW6831 Weather Reports


Display with metric or nautical units.
time (UTC)temp
F
wind
direction
speed
MPH
gust
MPH
rain 1hr
in
rain 24hr
in
rain mn
in
humidity
%
barometer
mb
20260509040124 73 176 2.0 5.0 0.00 0.00 0.00 55 1021.8
20260509035544 73 149 2.0 5.0 0.00 0.00 0.00 55 1021.8
20260509035047 73 238 1.0 7.0 0.00 0.00 0.00 57 1021.7
20260509034556 73 112 2.0 7.0 0.00 0.00 0.00 56 1021.8
20260509034044 73 167 2.0 6.0 0.00 0.00 0.00 56 1021.8
20260509033546 73 172 1.0 5.0 0.00 0.00 0.00 55 1021.8
20260509033054 73 189 1.0 5.0 0.00 0.00 0.00 58 1021.9
20260509032544 73 176 1.0 5.0 0.00 0.00 0.00 57 1022.0
20260509032047 73 101 1.0 5.0 0.00 0.00 0.00 57 1022.0
20260509031600 73 205 1.0 5.0 0.00 0.00 0.00 58 1022.0
20260509031043 72 194 2.0 6.0 0.00 0.00 0.00 58 1022.1
20260509030544 72 0 2.0 7.0 0.00 0.00 0.00 58 1022.1
20260509030058 72 214 3.0 7.0 0.00 0.00 0.00 58 1022.1
20260509025546 72 198 1.0 3.0 0.00 0.00 0.00 57 1022.1
20260509025046 72 298 1.0 6.0 0.00 0.00 0.00 58 1022.2
20260509024555 72 106 2.0 6.0 0.00 0.00 0.00 59 1022.2
20260509024044 72 142 2.0 5.0 0.00 0.00 0.00 60 1022.3
20260509023548 72 120 0.0 6.0 0.00 0.00 0.00 59 1022.4
20260509023056 71 0 1.0 6.0 0.00 0.00 0.00 60 1022.4
20260509022544 72 193 2.0 5.0 0.00 0.00 0.00 59 1022.5
20260509022044 72 197 0.0 5.0 0.00 0.00 0.00 59 1022.7
20260509021548 72 345 1.0 5.0 0.00 0.00 0.00 59 1022.7
20260509021043 72 190 2.0 5.0 0.00 0.00 0.00 59 1022.8
20260509020541 71 143 2.0 6.0 0.00 0.00 0.00 58 1023.0
20260509020048 71 93 2.0 6.0 0.00 0.00 0.00 59 1023.1
20260509015545 71 115 1.0 5.0 0.00 0.00 0.00 59 1023.1
20260509015045 70 199 1.0 6.0 0.00 0.00 0.00 59 1023.0
20260509014550 70 171 1.0 6.0 0.00 0.00 0.00 58 1023.1
20260509014044 70 176 3.0 6.0 0.00 0.00 0.00 58 1023.3
20260509013544 70 0 1.0 5.0 0.00 0.00 0.00 59 1023.4
20260509013051 70 180 0.0 3.0 0.00 0.00 0.00 60 1023.4
20260509012544 69 0 0.0 0.0 0.00 0.00 0.00 59 1023.6
20260509012043 69 0 0.0 0.0 0.00 0.00 0.00 60 1023.6
20260509011558 69 0 0.0 0.0 0.00 0.00 0.00 61 1023.5
20260509011044 68 0 0.0 0.0 0.00 0.00 0.00 61 1023.7
20260509010542 67 0 0.0 2.0 0.00 0.00 0.00 61 1023.6
20260509010050 67 0 0.0 2.0 0.00 0.00 0.00 62 1023.8
20260509005544 67 0 0.0 3.0 0.00 0.00 0.00 61 1023.7
20260509005043 67 0 1.0 3.0 0.00 0.00 0.00 62 1023.8
20260509004606 67 0 0.0 0.0 0.00 0.00 0.00 63 1023.7
20260509004044 66 0 0.0 0.0 0.00 0.00 0.00 62 1023.7
20260509003544 66 0 0.0 0.0 0.00 0.00 0.00 64 1023.7
20260509003048 65 0 0.0 0.0 0.00 0.00 0.00 64 1023.7
20260509002544 65 0 0.0 0.0 0.00 0.00 0.00 63 1023.9
20260509002044 65 0 0.0 0.0 0.00 0.00 0.00 63 1023.9
20260509001550 65 0 0.0 0.0 0.00 0.00 0.00 64 1024.0
20260509001044 64 0 0.0 1.0 0.00 0.00 0.00 64 1024.0
20260509000541 64 0 0.0 3.0 0.00 0.00 0.00 63 1024.0
20260509000047 65 0 0.0 3.0 0.00 0.00 0.00 63 1024.0
20260508235544 65 186 1.0 4.0 0.00 0.00 0.00 63 1024.1
20260508235045 64 0 0.0 4.0 0.00 0.00 0.00 63 1024.0
20260508234548 65 204 2.0 4.0 0.00 0.00 0.00 62 1024.0
20260508234046 66 0 0.0 1.0 0.00 0.00 0.00 62 1024.0
20260508233544 65 0 0.0 5.0 0.00 0.00 0.00 64 1023.9
20260508233056 64 0 0.0 5.0 0.00 0.00 0.00 63 1023.9
20260508232546 65 185 0.0 2.0 0.00 0.00 0.00 64 1023.9
20260508232044 64 288 1.0 2.0 0.00 0.00 0.00 64 1023.8
20260508231556 65 0 0.0 0.0 0.00 0.00 0.00 68 1023.8
20260508231043 63 0 0.0 0.0 0.00 0.00 0.00 70 1023.8
20260508230541 62 0 0.0 0.0 0.00 0.00 0.00 71 1023.8
20260508230049 62 0 0.0 0.0 0.00 0.00 0.00 72 1023.7
20260508225544 61 0 0.0 0.0 0.00 0.00 0.00 71 1023.6
20260508225044 61 0 0.0 0.0 0.00 0.00 0.00 72 1023.6
20260508224553 61 0 0.0 0.0 0.00 0.00 0.00 74 1023.7
20260508224044 60 0 0.0 0.0 0.00 0.00 0.00 75 1023.6
20260508223548 60 0 0.0 0.0 0.00 0.00 0.00 76 1023.4
20260508223054 60 0 0.0 0.0 0.00 0.00 0.00 77 1023.3
20260508222542 59 0 0.0 0.0 0.00 0.00 0.00 78 1023.3
20260508222043 59 0 0.0 0.0 0.00 0.00 0.00 79 1023.2
20260508221549 58 0 0.0 0.0 0.00 0.00 0.00 80 1023.2
20260508221046 57 0 0.0 0.0 0.00 0.00 0.00 80 1023.2
20260508220545 56 0 0.0 0.0 0.00 0.00 0.00 82 1023.1
20260508220110 55 0 0.0 0.0 0.00 0.00 0.00 83 1023.1
20260508215544 54 0 0.0 0.0 0.00 0.00 0.00 84 1023.0
20260508215043 53 0 0.0 0.0 0.00 0.00 0.00 85 1022.8
20260508214606 52 0 0.0 1.0 0.00 0.00 0.00 85 1022.8
20260508214042 51 0 0.0 1.0 0.00 0.00 0.00 85 1022.8
20260508213541 51 0 0.0 1.0 0.00 0.00 0.00 85 1022.8
20260508213054 50 316 0.0 0.0 0.00 0.00 0.00 85 1022.7
20260508212544 50 0 0.0 0.0 0.00 0.00 0.00 87 1022.6
20260508212041 49 0 0.0 0.0 0.00 0.00 0.00 88 1022.4
20260508211553 48 0 0.0 0.0 0.00 0.00 0.00 89 1022.4
20260508211043 48 0 0.0 0.0 0.00 0.00 0.00 88 1022.4
20260508210544 48 0 0.0 0.0 0.00 0.00 0.00 89 1022.4
20260508210054 47 0 0.0 0.0 0.00 0.00 0.00 88 1022.3
20260508205543 47 0 0.0 0.0 0.00 0.00 0.00 89 1022.4
20260508205043 47 0 0.0 0.0 0.00 0.00 0.00 89 1022.3
20260508204552 47 0 0.0 0.0 0.00 0.00 0.00 89 1022.3
20260508204044 47 0 0.0 0.0 0.00 0.00 0.00 88 1022.2
20260508203546 47 0 0.0 0.0 0.00 0.00 0.00 88 1022.1
20260508203100 47 0 0.0 0.0 0.00 0.00 0.00 87 1022.0
20260508202544 47 0 0.0 0.0 0.00 0.00 0.00 88 1021.8
20260508202043 47 0 0.0 0.0 0.00 0.00 0.00 88 1021.8
20260508201553 47 0 0.0 0.0 0.00 0.00 0.00 88 1021.9
20260508201045 48 0 0.0 0.0 0.00 0.00 0.00 88 1021.8
20260508200543 48 0 0.0 0.0 0.00 0.00 0.00 87 1021.6
20260508200050 48 0 0.0 0.0 0.00 0.00 0.00 87 1021.6
20260508195541 48 0 0.0 1.0 0.00 0.00 0.00 87 1021.6
20260508195044 47 0 0.0 1.0 0.00 0.00 0.00 87 1021.6
20260508194559 47 0 0.0 1.0 0.00 0.00 0.00 87 1021.5
20260508194043 47 0 0.0 1.0 0.00 0.00 0.00 87 1021.3
20260508193541 48 308 0.0 1.0 0.00 0.00 0.00 87 1021.4
20260508193104 47 307 0.0 1.0 0.00 0.00 0.00 87 1021.2
20260508192544 47 0 0.0 1.0 0.00 0.00 0.00 87 1021.0
20260508192045 47 0 0.0 1.0 0.00 0.00 0.00 88 1021.0
20260508191551 48 307 0.0 1.0 0.00 0.00 0.00 88 1021.0
20260508191043 48 0 0.0 1.0 0.00 0.00 0.00 88 1020.9
20260508190543 48 316 0.0 1.0 0.00 0.00 0.00 88 1020.9
20260508190105 48 303 0.0 1.0 0.00 0.00 0.00 88 1020.8
20260508185544 48 302 0.0 1.0 0.00 0.00 0.00 88 1020.8
20260508185044 48 321 0.0 1.0 0.00 0.00 0.00 88 1020.8
20260508184600 48 0 0.0 1.0 0.00 0.00 0.00 88 1020.8
20260508184043 47 324 0.0 1.0 0.00 0.00 0.00 87 1020.7
20260508183543 47 0 0.0 1.0 0.00 0.00 0.00 88 1020.6
20260508183050 47 320 0.0 1.0 0.00 0.00 0.00 88 1020.6
20260508182544 47 323 0.0 1.0 0.00 0.00 0.00 87 1020.6
20260508182043 47 321 0.0 1.0 0.00 0.00 0.00 87 1020.6
20260508181602 47 0 0.0 0.0 0.00 0.00 0.00 86 1020.5
20260508181043 47 0 0.0 0.0 0.00 0.00 0.00 86 1020.5
20260508180545 47 0 0.0 0.0 0.00 0.00 0.00 86 1020.6
20260508180052 48 0 0.0 0.0 0.00 0.00 0.00 85 1020.6
20260508175544 48 0 0.0 0.0 0.00 0.00 0.00 86 1020.6
20260508175045 48 0 0.0 0.0 0.00 0.00 0.00 85 1020.6
20260508174549 48 0 0.0 0.0 0.00 0.00 0.00 85 1020.5
20260508174043 48 0 0.0 0.0 0.00 0.00 0.00 85 1020.7
20260508173544 48 0 0.0 0.0 0.00 0.00 0.00 83 1020.6
20260508173048 48 0 0.0 0.0 0.00 0.00 0.00 84 1020.7
20260508172544 48 0 0.0 0.0 0.00 0.00 0.00 84 1020.6
20260508172043 48 0 0.0 0.0 0.00 0.00 0.00 84 1020.6
20260508171552 48 0 0.0 1.0 0.00 0.00 0.00 84 1020.6
20260508171042 48 0 0.0 1.0 0.00 0.00 0.00 85 1020.6
20260508170540 48 0 0.0 1.0 0.00 0.00 0.00 83 1020.6
20260508170052 48 0 0.0 0.0 0.00 0.00 0.00 83 1020.4
20260508165543 48 0 0.0 0.0 0.00 0.00 0.00 84 1020.5
20260508165043 49 0 0.0 0.0 0.00 0.00 0.00 84 1020.6
20260508164551 50 0 0.0 0.0 0.00 0.00 0.00 82 1020.4
20260508164043 51 0 0.0 0.0 0.00 0.00 0.00 80 1020.6
20260508163543 51 0 0.0 0.0 0.00 0.00 0.00 75 1020.3
20260508163050 51 0 0.0 0.0 0.00 0.00 0.00 76 1020.5
20260508162543 50 0 0.0 0.0 0.00 0.00 0.00 76 1020.5
20260508162042 50 0 0.0 0.0 0.00 0.00 0.00 75 1020.5
20260508161551 50 0 0.0 0.0 0.00 0.00 0.00 75 1020.4
20260508161045 50 0 0.0 0.0 0.00 0.00 0.00 75 1020.4
20260508160546 50 0 0.0 0.0 0.00 0.00 0.00 74 1020.4
20260508160109 51 0 0.0 0.0 0.00 0.00 0.00 75 1020.3
20260508155542 51 0 0.0 0.0 0.00 0.00 0.00 74 1020.3
20260508155042 51 0 0.0 0.0 0.00 0.00 0.00 74 1020.3
20260508154557 51 0 0.0 0.0 0.00 0.00 0.00 74 1020.3
20260508154043 52 0 0.0 0.0 0.00 0.00 0.00 75 1020.4
20260508153541 52 0 0.0 0.0 0.00 0.00 0.00 74 1020.4
20260508153048 52 0 0.0 0.0 0.00 0.00 0.00 73 1020.4
20260508152543 52 0 0.0 0.0 0.00 0.00 0.00 72 1020.4
20260508152045 52 0 0.0 0.0 0.00 0.00 0.00 73 1020.3
20260508151552 52 0 0.0 0.0 0.00 0.00 0.00 72 1020.3
20260508151043 53 0 0.0 0.0 0.00 0.00 0.00 73 1020.3
20260508150540 53 0 0.0 0.0 0.00 0.00 0.00 71 1020.2
20260508150051 53 0 0.0 0.0 0.00 0.00 0.00 71 1020.3
20260508145544 53 0 0.0 0.0 0.00 0.00 0.00 70 1020.3
20260508145042 53 0 0.0 0.0 0.00 0.00 0.00 67 1020.2
20260508144549 54 0 0.0 0.0 0.00 0.00 0.00 66 1020.4
20260508144044 54 0 0.0 0.0 0.00 0.00 0.00 66 1020.4
20260508143543 54 0 0.0 0.0 0.00 0.00 0.00 65 1020.3
20260508143105 54 0 0.0 0.0 0.00 0.00 0.00 64 1020.2
20260508142544 54 0 0.0 0.0 0.00 0.00 0.00 64 1020.1
20260508142044 54 0 0.0 0.0 0.00 0.00 0.00 65 1020.2
20260508141555 54 0 0.0 0.0 0.00 0.00 0.00 64 1020.2
20260508141040 54 0 0.0 0.0 0.00 0.00 0.00 66 1020.3
20260508140544 54 0 0.0 0.0 0.00 0.00 0.00 65 1020.4
20260508140051 54 0 0.0 0.0 0.00 0.00 0.00 67 1020.3
20260508135546 54 0 0.0 0.0 0.00 0.00 0.00 66 1020.2
20260508135044 55 0 0.0 0.0 0.00 0.00 0.00 67 1020.2
20260508134549 55 0 0.0 0.0 0.00 0.00 0.00 64 1020.2
20260508134043 55 0 0.0 0.0 0.00 0.00 0.00 63 1020.2
20260508133545 55 0 0.0 1.0 0.00 0.00 0.00 64 1020.1
20260508133057 55 0 0.0 1.0 0.00 0.00 0.00 62 1020.2
20260508132544 55 0 0.0 1.0 0.00 0.00 0.00 63 1020.1
20260508132043 56 311 0.0 2.0 0.00 0.00 0.00 63 1019.9
20260508131548 56 317 0.0 2.0 0.00 0.00 0.00 61 1019.9
20260508131046 56 312 0.0 1.0 0.00 0.00 0.00 61 1019.9
20260508130543 56 297 0.0 1.0 0.00 0.00 0.00 63 1019.9
20260508130056 56 329 0.0 1.0 0.00 0.00 0.00 62 1019.7
20260508125542 57 326 0.0 1.0 0.00 0.00 0.00 62 1019.6
20260508125039 57 0 0.0 1.0 0.00 0.00 0.00 59 1019.6
20260508124548 57 339 0.0 2.0 0.00 0.00 0.00 59 1019.7
20260508124043 57 359 0.0 2.0 0.00 0.00 0.00 58 1019.8
20260508123545 56 0 1.0 2.0 0.00 0.00 0.00 59 1019.7
20260508123053 56 0 0.0 1.0 0.00 0.00 0.00 61 1019.7
20260508122545 56 0 0.0 1.0 0.00 0.00 0.00 61 1019.7
20260508122045 56 0 0.0 1.0 0.00 0.00 0.00 62 1019.8
20260508121605 56 331 0.0 1.0 0.00 0.00 0.00 61 1019.9
20260508121044 56 0 0.0 1.0 0.00 0.00 0.00 62 1020.0
20260508120543 56 0 0.0 1.0 0.00 0.00 0.00 62 1019.9
20260508120054 55 335 0.0 1.0 0.00 0.00 0.00 65 1020.0
20260508115548 55 0 0.0 1.0 0.00 0.00 0.00 64 1019.9
20260508115044 55 0 0.0 2.0 0.00 0.00 0.00 65 1019.9
20260508114548 55 0 0.0 2.0 0.00 0.00 0.00 66 1020.1
20260508114044 55 0 0.0 1.0 0.00 0.00 0.00 67 1019.9
20260508113546 55 0 0.0 1.0 0.00 0.00 0.00 68 1020.0
20260508113052 56 0 0.0 1.0 0.00 0.00 0.00 67 1020.0
20260508112544 56 0 0.0 1.0 0.00 0.00 0.00 66 1020.0
20260508112048 56 321 0.0 2.0 0.00 0.00 0.00 67 1019.8
20260508111550 56 321 0.0 2.0 0.00 0.00 0.00 66 1019.9
20260508111045 56 323 0.0 1.0 0.00 0.00 0.00 66 1019.8
20260508110544 56 316 0.0 1.0 0.00 0.00 0.00 63 1019.7
20260508110059 56 314 1.0 2.0 0.00 0.00 0.00 66 1019.8
20260508105547 57 305 0.0 2.0 0.00 0.00 0.00 64 1019.8
20260508105046 57 318 0.0 2.0 0.00 0.00 0.00 63 1019.6
20260508104555 58 302 0.0 2.0 0.00 0.00 0.00 61 1019.6
20260508104044 58 0 0.0 2.0 0.00 0.00 0.00 60 1019.7
20260508103545 58 330 0.0 2.0 0.00 0.00 0.00 61 1019.7
20260508103055 58 0 0.0 1.0 0.00 0.00 0.00 61 1019.6
20260508102544 58 0 0.0 1.0 0.00 0.00 0.00 61 1019.7
20260508102045 57 0 0.0 0.0 0.00 0.00 0.00 63 1019.5
20260508101552 57 0 0.0 2.0 0.00 0.00 0.00 65 1019.6
20260508101045 56 0 0.0 2.0 0.00 0.00 0.00 65 1019.6
20260508100546 56 322 0.0 2.0 0.00 0.00 0.00 69 1019.6
20260508100051 56 319 0.0 2.0 0.00 0.00 0.00 68 1019.4
20260508095545 56 314 0.0 2.0 0.00 0.00 0.00 68 1019.3
20260508095048 57 322 1.0 2.0 0.00 0.00 0.00 68 1019.3
20260508094609 56 0 1.0 2.0 0.00 0.00 0.00 67 1019.3
20260508094044 56 333 0.0 2.0 0.00 0.00 0.00 69 1019.3
20260508093545 56 323 1.0 2.0 0.00 0.00 0.00 69 1019.2
20260508093049 56 338 1.0 2.0 0.00 0.00 0.00 68 1019.3
20260508092545 57 321 1.0 2.0 0.00 0.00 0.00 64 1019.2
20260508092044 57 0 1.0 2.0 0.00 0.00 0.00 67 1019.2
20260508091555 57 321 1.0 2.0 0.00 0.00 0.00 62 1019.1
20260508091045 57 316 1.0 2.0 0.00 0.00 0.00 64 1019.1
20260508090545 56 322 0.0 2.0 0.00 0.00 0.00 67 1019.0
20260508090051 56 317 1.0 2.0 0.00 0.00 0.00 66 1019.0
20260508085543 56 311 1.0 2.0 0.00 0.00 0.00 70 1018.9
20260508085046 56 316 0.0 2.0 0.00 0.00 0.00 67 1018.8
20260508084553 56 320 1.0 2.0 0.00 0.00 0.00 68 1018.8
20260508084043 56 315 1.0 2.0 0.00 0.00 0.00 65 1018.7
20260508083543 56 319 1.0 2.0 0.00 0.00 0.00 69 1018.7
20260508083130 56 324 0.0 2.0 0.00 0.00 0.00 69 1018.7
20260508082542 56 321 1.0 2.0 0.00 0.00 0.00 69 1018.6
20260508082045 56 321 1.0 1.0 0.00 0.00 0.00 71 1018.5
20260508081555 57 316 0.0 2.0 0.00 0.00 0.00 72 1018.4
20260508081046 57 317 1.0 2.0 0.00 0.00 0.00 72 1018.4
20260508080545 57 305 1.0 3.0 0.00 0.00 0.00 73 1018.0
20260508080100 57 320 1.0 3.0 0.00 0.00 0.00 68 1018.0
20260508075543 58 323 0.0 2.0 0.00 0.00 0.00 68 1017.9
20260508075042 58 0 0.0 0.0 0.00 0.00 0.00 69 1017.9
20260508074548 58 0 0.0 0.0 0.00 0.00 0.00 69 1017.7
20260508074044 59 0 0.0 0.0 0.00 0.00 0.00 68 1017.7
20260508073542 59 0 0.0 0.0 0.00 0.00 0.00 62 1017.8
20260508073057 59 0 0.0 0.0 0.00 0.00 0.00 63 1017.7
20260508072544 60 0 0.0 0.0 0.00 0.00 0.00 64 1017.8
20260508072042 60 0 0.0 0.0 0.00 0.00 0.00 63 1017.7
20260508071555 61 0 0.0 0.0 0.00 0.00 0.00 63 1017.7
20260508071042 61 0 0.0 0.0 0.00 0.00 0.00 62 1017.6
20260508070542 62 0 0.0 0.0 0.00 0.00 0.00 61 1017.5
20260508070048 62 0 0.0 0.0 0.00 0.00 0.00 63 1017.6
20260508065544 63 0 0.0 0.0 0.00 0.00 0.00 59 1017.5
20260508065044 63 0 0.0 0.0 0.00 0.00 0.00 59 1017.4
20260508064607 64 0 0.0 0.0 0.00 0.00 0.00 59 1017.4
20260508064043 64 0 0.0 0.0 0.00 0.00 0.00 56 1017.4
20260508063543 65 0 0.0 0.0 0.00 0.00 0.00 54 1017.3
20260508063048 65 0 0.0 0.0 0.00 0.00 0.00 51 1017.2
20260508062542 65 0 0.0 0.0 0.00 0.00 0.00 49 1017.2
20260508062042 66 0 0.0 0.0 0.00 0.00 0.00 46 1017.3
20260508061549 66 0 0.0 0.0 0.00 0.00 0.00 46 1017.2
20260508061042 66 0 0.0 0.0 0.00 0.00 0.00 46 1017.2
20260508060546 67 0 0.0 0.0 0.00 0.00 0.00 44 1017.2
20260508060047 67 0 0.0 0.0 0.00 0.00 0.00 44 1017.2
20260508055544 67 0 0.0 0.0 0.00 0.00 0.00 42 1017.3
20260508055044 67 0 0.0 0.0 0.00 0.00 0.00 42 1017.3
20260508054554 68 0 0.0 2.0 0.00 0.00 0.00 39 1017.3
20260508054048 68 0 0.0 2.0 0.00 0.00 0.00 38 1017.3
20260508053545 68 0 0.0 0.0 0.00 0.00 0.00 34 1017.3
20260508053049 69 0 0.0 1.0 0.00 0.00 0.00 35 1017.5
20260508052545 69 0 0.0 1.0 0.00 0.00 0.00 37 1017.5
20260508052047 69 0 0.0 4.0 0.00 0.00 0.00 37 1017.4
20260508051550 70 0 0.0 4.0 0.00 0.00 0.00 35 1017.5
20260508051045 70 0 1.0 4.0 0.00 0.00 0.00 31 1017.5
20260508050545 70 0 0.0 6.0 0.00 0.00 0.00 32 1017.4
20260508050058 70 221 1.0 7.0 0.00 0.00 0.00 31 1017.5
20260508045546 71 0 0.0 7.0 0.00 0.00 0.00 32 1017.5
20260508045047 71 341 2.0 7.0 0.00 0.00 0.00 29 1017.5
20260508044556 72 305 0.0 2.0 0.00 0.00 0.00 30 1017.6
20260508044043 72 0 0.0 3.0 0.00 0.00 0.00 30 1017.7
20260508043544 71 0 0.0 4.0 0.00 0.00 0.00 31 1017.7
20260508043055 72 1 1.0 4.0 0.00 0.00 0.00 28 1017.7
20260508042545 72 0 0.0 3.0 0.00 0.00 0.00 31 1017.7
20260508042047 71 268 1.0 3.0 0.00 0.00 0.00 31 1017.7
20260508041603 71 259 1.0 5.0 0.00 0.00 0.00 30 1017.8
20260508041047 71 0 1.0 5.0 0.00 0.00 0.00 30 1017.8
20260508040544 70 266 0.0 4.0 0.00 0.00 0.00 28 1017.8